GW3296 Weather Reports


time (UTC)temp
F
wind
direction
speed
knots
gust
knots
rain 1hr
in
rain 24hr
in
rain mn
in
humidity
%
barometer
mb
20260510190530 68 320 11.3 13.9 0.00 0.00 0.00 25 1020.8
20260510190027 69 275 3.5 6.1 0.00 0.00 0.00 25 1020.4
20260510185524 68 273 0.9 5.2 0.00 0.00 0.00 27 1020.5
20260510185022 68 302 6.1 11.3 0.00 0.00 0.00 27 1020.6
20260510184519 68 31 6.1 7.8 0.00 0.00 0.00 24 1020.6
20260510184014 68 40 3.5 7.0 0.00 0.00 0.00 26 1020.5
20260510183509 68 178 1.7 7.0 0.00 0.00 0.00 27 1020.4
20260510183005 68 263 3.5 5.2 0.00 0.00 0.00 25 1020.5
20260510182503 68 34 4.3 7.0 0.00 0.00 0.00 26 1020.6
20260510181957 68 8 7.8 11.3 0.00 0.00 0.00 25 1020.6
20260510181456 70 355 2.6 4.3 0.00 0.00 0.00 24 1020.6
20260510180950 68 6 4.3 7.0 0.00 0.00 0.00 25 1020.7
20260510180448 66 10 0.0 7.8 0.00 0.00 0.00 27 1020.7
20260510175945 67 7 4.3 9.6 0.00 0.00 0.00 27 1020.9
20260510175441 67 342 6.1 11.3 0.00 0.00 0.00 27 1020.7
20260510174937 67 347 6.1 7.0 0.00 0.00 0.00 27 1020.8
20260510174436 66 224 1.7 4.3 0.00 0.00 0.00 30 1020.8
20260510173932 68 343 9.6 11.3 0.00 0.00 0.00 27 1020.7
20260510173427 68 331 7.8 7.8 0.00 0.00 0.00 27 1020.6
20260510172924 66 337 6.1 7.8 0.00 0.00 0.00 27 1020.8
20260510172420 66 5 6.1 7.8 0.00 0.00 0.00 28 1020.8
20260510171916 66 285 4.3 7.0 0.00 0.00 0.00 29 1020.8
20260510171413 66 277 6.1 9.6 0.00 0.00 0.00 31 1020.9
20260510170910 66 308 9.6 13.9 0.00 0.00 0.00 29 1020.7
20260510170407 66 259 7.0 14.8 0.00 0.00 0.00 28 1021.0
20260510165902 67 269 1.7 5.2 0.00 0.00 0.00 29 1021.2
20260510165358 66 342 2.6 8.7 0.00 0.00 0.00 31 1021.1
20260510164856 67 38 1.7 6.1 0.00 0.00 0.00 29 1021.1
20260510164353 67 329 2.6 13.0 0.00 0.00 0.00 29 1021.2
20260510163852 67 358 2.6 5.2 0.00 0.00 0.00 30 1021.1
20260510163349 66 14 2.6 6.1 0.00 0.00 0.00 28 1021.4
20260510162844 66 306 1.7 6.1 0.00 0.00 0.00 30 1021.0
20260510162342 65 25 2.6 7.0 0.00 0.00 0.00 31 1021.2
20260510161837 65 13 6.1 8.7 0.00 0.00 0.00 32 1021.2
20260510161333 64 265 3.5 5.2 0.00 0.00 0.00 34 1021.2
20260510160830 65 36 2.6 5.2 0.00 0.00 0.00 31 1021.1
20260510160326 65 32 4.3 7.8 0.00 0.00 0.00 30 1021.2
20260510155821 64 317 2.6 2.6 0.00 0.00 0.00 30 1021.2
20260510155318 65 288 3.5 7.0 0.00 0.00 0.00 33 1021.4
20260510154814 65 28 1.7 6.1 0.00 0.00 0.00 27 1021.2
20260510154310 66 264 1.7 5.2 0.00 0.00 0.00 32 1021.1
20260510153804 65 49 0.9 5.2 0.00 0.00 0.00 36 1020.9
20260510153300 64 50 3.5 7.0 0.00 0.00 0.00 36 1020.6
20260510152757 64 334 3.5 7.0 0.00 0.00 0.00 40 1020.8
20260510152254 63 7 3.5 9.6 0.00 0.00 0.00 39 1020.7
20260510151750 64 10 1.7 4.3 0.00 0.00 0.00 38 1020.8
20260510151249 63 351 0.9 7.8 0.00 0.00 0.00 40 1020.7
20260510150744 63 40 3.5 6.1 0.00 0.00 0.00 42 1020.8
20260510150240 63 335 7.0 7.8 0.00 0.00 0.00 40 1020.5
20260510145736 63 359 2.6 4.3 0.00 0.00 0.00 42 1020.6
20260510145233 63 13 4.3 7.8 0.00 0.00 0.00 41 1020.2
20260510144729 62 36 3.5 5.2 0.00 0.00 0.00 44 1020.0
20260510144226 63 32 4.3 6.1 0.00 0.00 0.00 43 1020.0
20260510143720 62 116 0.9 5.2 0.00 0.00 0.00 43 1020.1
20260510143217 62 69 2.6 5.2 0.00 0.00 0.00 44 1020.1
20260510142714 61 331 4.3 7.0 0.00 0.00 0.00 44 1020.0
20260510142210 61 337 4.3 7.8 0.00 0.00 0.00 45 1020.2
20260510141707 62 72 1.7 5.2 0.00 0.00 0.00 45 1020.0
20260510141206 61 119 4.3 7.0 0.00 0.00 0.00 45 1020.0
20260510140702 61 340 2.6 7.8 0.00 0.00 0.00 44 1020.2
20260510140202 60 11 2.6 9.6 0.00 0.00 0.00 45 1020.2
20260510135656 60 3 4.3 6.1 0.00 0.00 0.00 48 1020.1
20260510135153 59 1 2.6 6.1 0.00 0.00 0.00 48 1020.1
20260510134650 60 344 6.1 7.8 0.00 0.00 0.00 46 1020.2
20260510134147 59 45 1.7 2.6 0.00 0.00 0.00 48 1020.1
20260510133643 59 8 3.5 7.0 0.00 0.00 0.00 48 1019.9
20260510133138 59 39 2.6 5.2 0.00 0.00 0.00 48 1019.9
20260510132636 58 339 1.7 2.6 0.00 0.00 0.00 49 1019.9
20260510132133 57 283 5.2 7.8 0.00 0.00 0.00 49 1020.1
20260510131630 58 352 4.3 6.1 0.00 0.00 0.00 50 1019.7
20260510131128 57 1 0.9 5.2 0.00 0.00 0.00 51 1019.6
20260510130624 57 359 2.6 6.1 0.00 0.00 0.00 51 1019.6
20260510130121 57 346 7.8 8.7 0.00 0.00 0.00 51 1019.5
20260510125618 57 295 2.6 4.3 0.00 0.00 0.00 52 1019.5
20260510125114 56 3 3.5 5.2 0.00 0.00 0.00 54 1019.6
20260510124611 56 300 2.6 6.1 0.00 0.00 0.00 54 1019.5
20260510124108 55 12 2.6 4.3 0.00 0.00 0.00 56 1019.2
20260510123603 55 0 2.6 7.0 0.00 0.00 0.00 56 1019.3
20260510123059 55 318 3.5 5.2 0.00 0.00 0.00 56 1019.5
20260510122555 55 6 4.3 5.2 0.00 0.00 0.00 57 1019.2
20260510122051 55 243 0.9 4.3 0.00 0.00 0.00 57 1018.9
20260510121548 54 277 0.9 4.3 0.00 0.00 0.00 58 1018.6
20260510121045 54 2 2.6 4.3 0.00 0.00 0.00 59 1018.6
20260510120544 54 323 2.6 6.1 0.00 0.00 0.00 59 1018.5
20260510120038 54 355 4.3 6.1 0.00 0.00 0.00 59 1018.2
20260510115535 54 336 1.7 2.6 0.00 0.00 0.00 60 1018.2
20260510115032 53 348 0.9 6.1 0.00 0.00 0.00 61 1018.0
20260510114528 53 42 0.0 1.7 0.00 0.00 0.00 61 1018.0
20260510114025 53 14 1.7 2.6 0.00 0.00 0.00 61 1018.0
20260510113520 53 21 1.7 2.6 0.00 0.00 0.00 62 1017.8
20260510113018 52 12 3.5 5.2 0.00 0.00 0.00 63 1017.8
20260510112514 52 292 1.7 2.6 0.00 0.00 0.00 64 1017.9
20260510112010 52 337 0.0 0.9 0.00 0.00 0.00 65 1017.6
20260510111507 52 292 0.9 1.7 0.00 0.00 0.00 65 1017.7
20260510111003 52 246 0.0 0.9 0.00 0.00 0.00 65 1017.7
20260510110459 52 250 0.0 0.9 0.00 0.00 0.00 65 1017.4
20260510105955 52 280 2.6 2.6 0.00 0.00 0.00 64 1017.5
20260510105451 53 294 1.7 1.7 0.00 0.00 0.00 63 1017.3
20260510104946 53 322 1.7 2.6 0.00 0.00 0.00 63 1017.4
20260510104443 53 276 1.7 4.3 0.00 0.00 0.00 63 1017.2
20260510103939 53 279 0.9 1.7 0.00 0.00 0.00 64 1017.0
20260510103437 53 278 1.7 1.7 0.00 0.00 0.00 64 1016.9
20260510102932 54 289 0.9 2.6 0.00 0.00 0.00 62 1017.1
20260510102428 54 318 1.7 1.7 0.00 0.00 0.00 62 1016.9
20260510101925 54 351 1.7 2.6 0.00 0.00 0.00 62 1016.9
20260510101423 55 330 0.9 1.7 0.00 0.00 0.00 61 1016.7
20260510100921 55 249 0.0 4.3 0.00 0.00 0.00 61 1016.6
20260510100417 55 332 2.6 2.6 0.00 0.00 0.00 61 1016.6
20260510095914 55 268 1.7 5.2 0.00 0.00 0.00 60 1016.4
20260510095409 55 286 1.7 2.6 0.00 0.00 0.00 60 1016.3
20260510094908 55 347 1.7 2.6 0.00 0.00 0.00 60 1015.9
20260510094403 56 273 2.6 4.3 0.00 0.00 0.00 60 1016.1
20260510093859 55 313 2.6 2.6 0.00 0.00 0.00 61 1015.7
20260510093350 56 261 1.7 4.3 0.00 0.00 0.00 61 1015.3
20260510092846 56 292 0.9 2.6 0.00 0.00 0.00 61 1015.2
20260510092343 56 266 1.7 4.3 0.00 0.00 0.00 61 1015.3
20260510091838 56 267 1.7 2.6 0.00 0.00 0.00 62 1015.2
20260510091336 56 315 3.5 4.3 0.00 0.00 0.00 61 1015.1
20260510090832 57 321 0.9 1.7 0.00 0.00 0.00 62 1015.1
20260510090329 57 342 1.7 4.3 0.00 0.00 0.00 62 1015.2
20260510085825 57 326 2.6 4.3 0.00 0.00 0.00 62 1015.1
20260510085324 57 335 3.5 4.3 0.00 0.00 0.00 61 1015.1
20260510084820 57 307 1.7 4.3 0.00 0.00 0.00 61 1015.1
20260510084318 57 330 2.6 2.6 0.00 0.00 0.00 61 1014.9
20260510083814 57 308 2.6 2.6 0.00 0.00 0.00 62 1014.8
20260510083311 58 282 0.9 0.9 0.00 0.00 0.00 62 1014.5
20260510082806 58 282 1.7 1.7 0.00 0.00 0.00 62 1014.6
20260510082306 58 46 0.9 2.6 0.00 0.00 0.00 62 1014.7
20260510081803 58 288 0.9 1.7 0.00 0.00 0.00 62 1014.5
20260510081259 58 264 0.0 0.9 0.00 0.00 0.00 62 1014.6
20260510080755 59 290 1.7 2.6 0.00 0.00 0.00 61 1014.6
20260510080250 59 311 2.6 2.6 0.00 0.00 0.00 60 1014.5
20260510075747 59 335 2.6 5.2 0.00 0.00 0.00 60 1014.7
20260510075245 59 306 1.7 1.7 0.00 0.00 0.00 62 1014.5
20260510074741 59 312 1.7 1.7 0.00 0.00 0.00 61 1014.6
20260510074238 60 279 0.9 1.7 0.00 0.00 0.00 60 1014.4
20260510073734 60 274 1.7 1.7 0.00 0.00 0.00 60 1014.6
20260510073230 60 301 0.9 1.7 0.00 0.00 0.00 60 1014.6
20260510072726 61 268 0.9 2.6 0.00 0.00 0.00 60 1014.6
20260510072223 61 327 2.6 2.6 0.00 0.00 0.00 60 1014.6
20260510071719 61 263 1.7 1.7 0.00 0.00 0.00 61 1014.5
20260510071216 61 308 0.9 1.7 0.00 0.00 0.00 61 1014.6
20260510070714 61 345 2.6 2.6 0.00 0.00 0.00 60 1014.4
20260510070211 61 317 1.7 1.7 0.00 0.00 0.00 60 1014.6
20260510065706 61 321 0.9 0.9 0.00 0.00 0.00 60 1014.5
20260510065203 61 322 1.7 2.6 0.00 0.00 0.00 61 1014.7
20260510064659 61 266 0.9 0.9 0.00 0.00 0.00 62 1014.6
20260510064157 61 325 0.9 1.7 0.00 0.00 0.00 61 1014.5
20260510063654 61 328 0.9 0.9 0.00 0.00 0.00 61 1014.7
20260510063150 61 268 0.0 1.7 0.00 0.00 0.00 62 1014.9
20260510062646 61 252 0.9 2.6 0.00 0.00 0.00 62 1014.7
20260510062142 61 263 0.0 0.9 0.00 0.00 0.00 62 1014.8
20260510061637 61 248 0.9 0.9 0.00 0.00 0.00 62 1014.9
20260510061135 61 280 2.6 2.6 0.00 0.00 0.00 61 1014.9
20260510060631 61 318 1.7 1.7 0.00 0.00 0.00 61 1014.8
20260510060128 61 236 0.0 0.9 0.00 0.00 0.00 62 1014.9
20260510055624 62 241 0.0 1.7 0.00 0.00 0.00 60 1014.9
20260510055122 62 242 1.7 1.7 0.00 0.00 0.00 60 1014.7
20260510054612 62 232 0.0 0.9 0.00 0.00 0.00 60 1014.5
20260510054107 62 287 0.9 0.9 0.00 0.00 0.00 58 1014.1
20260510053607 63 197 0.9 0.9 0.00 0.00 0.00 56 1014.1
20260510053104 63 204 0.0 1.7 0.00 0.00 0.00 57 1014.2
20260510052600 63 186 0.0 0.9 0.00 0.00 0.00 56 1013.9
20260510052056 63 220 0.9 0.9 0.00 0.00 0.00 56 1014.1
20260510051551 64 199 0.0 0.9 0.00 0.00 0.00 55 1014.1
20260510051048 64 216 0.9 0.9 0.00 0.00 0.00 54 1013.7
20260510050540 64 202 0.0 0.9 0.00 0.00 0.00 53 1013.9
20260510050037 65 209 0.0 0.9 0.00 0.01 0.01 52 1013.9
20260510045534 65 236 0.9 0.9 0.00 0.01 0.01 52 1013.8
20260510045030 65 206 0.0 1.7 0.00 0.01 0.01 52 1013.7
20260510044527 65 209 0.9 1.7 0.00 0.01 0.01 53 1013.6
20260510044025 65 219 0.0 2.6 0.00 0.01 0.01 53 1013.5
20260510043520 65 279 0.9 2.6 0.00 0.01 0.01 52 1013.4
20260510043015 65 245 0.9 2.6 0.00 0.01 0.01 52 1013.3
20260510042510 65 253 0.9 1.7 0.00 0.01 0.01 51 1013.4
20260510042005 65 293 1.7 2.6 0.00 0.01 0.01 51 1013.4
20260510041503 66 289 0.9 1.7 0.00 0.01 0.01 50 1013.3
20260510041000 66 294 2.6 4.3 0.00 0.01 0.01 50 1013.2
20260510040456 66 248 0.9 4.3 0.00 0.01 0.01 51 1013.1
20260510035952 66 266 0.9 0.9 0.00 0.01 0.01 51 1012.9
20260510035449 66 282 1.7 2.6 0.00 0.01 0.01 50 1012.7
20260510034948 66 236 0.9 1.7 0.00 0.01 0.01 52 1012.7
20260510034447 66 314 1.7 2.6 0.00 0.01 0.01 52 1012.6
20260510033943 66 282 0.0 1.7 0.00 0.01 0.01 53 1012.6
20260510033439 66 318 0.9 2.6 0.00 0.01 0.01 53 1012.5
20260510032937 66 356 0.9 1.7 0.00 0.01 0.01 53 1012.4
20260510032434 66 332 1.7 4.3 0.00 0.01 0.01 52 1012.4
20260510031928 66 311 0.9 1.7 0.00 0.01 0.01 51 1012.3
20260510031424 66 322 2.6 2.6 0.00 0.01 0.01 51 1012.5
20260510030920 67 69 0.9 1.7 0.00 0.01 0.01 50 1012.1
20260510030416 67 336 5.2 6.1 0.00 0.01 0.01 49 1012.1
20260510025914 67 16 2.6 2.6 0.00 0.01 0.01 48 1012.1
20260510025411 67 54 1.7 5.2 0.00 0.01 0.01 48 1011.9
20260510024908 67 39 1.7 2.6 0.00 0.01 0.01 48 1011.6
20260510024404 68 58 1.7 5.2 0.00 0.01 0.01 47 1011.7
20260510023900 68 321 0.9 2.6 0.00 0.01 0.01 47 1011.6
20260510023356 68 34 1.7 4.3 0.00 0.01 0.01 47 1011.2
20260510022854 68 72 0.9 2.6 0.00 0.01 0.01 47 1011.3
20260510022353 68 329 4.3 6.1 0.00 0.01 0.01 46 1011.1
20260510021851 68 31 2.6 7.8 0.00 0.01 0.01 46 1010.9
20260510021350 66 28 2.6 7.0 0.00 0.01 0.01 49 1010.6
20260510020846 64 87 1.7 1.7 0.00 0.01 0.01 60 1010.5
20260510020346 64 2 2.6 5.2 0.00 0.01 0.01 64 1010.4
20260510015842 65 309 0.9 1.7 0.00 0.01 0.01 64 1010.0
20260510015338 66 240 0.9 0.9 0.00 0.01 0.01 62 1009.6
20260510014834 67 167 0.0 0.0 0.00 0.01 0.01 60 1009.7
20260510014331 68 167 0.0 0.0 0.00 0.01 0.01 56 1009.7
20260510013827 69 178 0.9 1.7 0.00 0.01 0.01 51 1009.7
20260510013323 68 174 1.7 2.6 0.00 0.01 0.01 51 1009.8
20260510012818 66 165 2.6 2.6 0.00 0.01 0.01 59 1009.6
20260510012318 66 200 0.0 0.0 0.00 0.01 0.01 58 1009.5
20260510011813 67 200 0.0 0.0 0.00 0.01 0.01 59 1009.5
20260510011308 68 200 0.0 0.0 0.00 0.01 0.01 58 1009.6
20260510010805 68 200 0.0 0.0 0.00 0.01 0.01 57 1009.6
20260510010303 69 200 0.0 0.0 0.00 0.01 0.01 54 1009.3
20260510005759 71 197 0.0 0.0 0.00 0.01 0.01 52 1009.3
20260510005255 71 196 0.0 0.0 0.00 0.01 0.01 48 1009.1
20260510004753 72 196 0.0 0.0 0.00 0.01 0.01 45 1009.1
20260510004251 73 199 0.0 0.0 0.00 0.01 0.01 43 1009.1
20260510003748 74 198 0.0 0.0 0.00 0.01 0.01 39 1009.1
20260510003244 75 210 0.0 1.7 0.00 0.01 0.01 38 1008.9
20260510002743 76 213 0.0 0.9 0.00 0.01 0.01 37 1009.0
20260510002241 77 251 0.0 0.0 0.00 0.01 0.01 36 1008.9
20260510001738 77 197 0.9 2.6 0.00 0.01 0.01 35 1008.9
20260510001236 77 191 0.0 4.3 0.00 0.01 0.01 35 1008.9
20260510000731 77 244 2.6 4.3 0.00 0.01 0.01 34 1008.9
20260510000229 77 227 2.6 6.1 0.00 0.01 0.01 34 1008.8
20260509235726 78 256 2.6 2.6 0.00 0.01 0.01 34 1008.7
20260509235222 78 198 0.0 2.6 0.00 0.01 0.01 33 1008.8
20260509234718 78 244 2.6 5.2 0.00 0.01 0.01 33 1008.7
20260509234215 78 257 2.6 4.3 0.00 0.01 0.01 33 1008.8
20260509233714 78 210 1.7 5.2 0.00 0.01 0.01 33 1008.8
20260509233211 78 309 2.6 4.3 0.00 0.01 0.01 32 1008.8
20260509232707 78 258 3.5 6.1 0.00 0.01 0.01 31 1008.7
20260509232204 78 186 0.9 7.8 0.00 0.01 0.01 32 1008.7
20260509231700 79 244 2.6 5.2 0.00 0.01 0.01 33 1008.8
20260509231158 80 3 0.9 7.0 0.00 0.01 0.01 31 1008.7
20260509230655 79 284 3.5 6.1 0.00 0.01 0.01 32 1008.5
20260509230151 79 267 5.2 7.0 0.00 0.01 0.01 31 1008.6
20260509225647 79 219 3.5 9.6 0.00 0.01 0.01 32 1008.7
20260509225143 79 259 2.6 7.8 0.00 0.01 0.01 31 1008.7
20260509224638 80 218 0.9 4.3 0.00 0.01 0.01 32 1008.7
20260509224136 80 203 0.9 4.3 0.00 0.01 0.01 31 1008.6
20260509223632 80 304 3.5 7.8 0.00 0.01 0.01 32 1008.5
20260509223130 78 298 3.5 4.3 0.00 0.01 0.01 33 1008.5
20260509222626 79 279 6.1 7.8 0.00 0.01 0.01 33 1008.5
20260509222122 79 229 3.5 5.2 0.00 0.01 0.01 33 1008.4
20260509221618 78 237 5.2 8.7 0.00 0.01 0.01 32 1008.4
20260509221114 78 269 2.6 9.6 0.00 0.01 0.01 33 1008.5
20260509220604 79 301 7.8 8.7 0.00 0.01 0.01 33 1008.6
20260509215556 78 323 4.3 8.7 0.00 0.01 0.01 32 1008.6
20260509215054 79 264 5.2 13.0 0.00 0.01 0.01 34 1008.3
20260509214551 80 157 2.6 2.6 0.00 0.01 0.01 33 1008.4
20260509214048 79 269 5.2 7.0 0.00 0.01 0.01 34 1008.5
20260509213544 78 252 6.1 9.6 0.00 0.01 0.01 34 1008.3
20260509213041 78 136 0.9 2.6 0.00 0.01 0.01 35 1008.5
20260509212538 78 276 4.3 6.1 0.00 0.01 0.01 35 1008.5
20260509212035 78 349 9.6 14.8 0.00 0.01 0.01 35 1008.3
20260509211530 78 271 3.5 9.6 0.00 0.01 0.01 35 1008.5
20260509211027 79 272 5.2 7.0 0.00 0.01 0.01 36 1008.3
20260509210524 79 187 2.6 7.0 0.00 0.01 0.01 37 1008.6
20260509210020 78 270 7.0 8.7 0.00 0.01 0.01 36 1008.6
20260509205515 78 267 4.3 7.0 0.00 0.01 0.01 39 1008.7
20260509205010 78 278 4.3 6.1 0.00 0.01 0.01 38 1008.6
20260509204507 78 259 2.6 8.7 0.00 0.01 0.01 39 1008.7
20260509204004 77 212 4.3 9.6 0.00 0.01 0.01 38 1008.6
20260509203459 77 267 1.7 5.2 0.00 0.01 0.01 39 1008.7
20260509202957 77 238 6.1 12.2 0.00 0.01 0.01 38 1008.9
20260509202453 77 270 7.0 8.7 0.00 0.01 0.01 40 1008.9
20260509201948 77 231 7.0 9.6 0.00 0.01 0.01 41 1008.8
20260509201443 77 224 2.6 7.8 0.00 0.01 0.01 39 1009.0
20260509200941 78 308 7.0 9.6 0.00 0.01 0.01 40 1009.0
20260509200441 77 261 4.3 7.8 0.00 0.01 0.01 42 1009.0
20260509195937 76 258 5.2 12.2 0.00 0.01 0.01 45 1009.1
20260509195433 76 262 6.1 12.2 0.00 0.01 0.01 42 1009.0
20260509194926 76 158 5.2 7.0 0.00 0.01 0.01 44 1009.0
20260509194422 76 257 2.6 2.6 0.00 0.01 0.01 46 1009.0
20260509193920 76 184 4.3 12.2 0.00 0.01 0.01 45 1009.1
20260509193419 76 252 7.0 8.7 0.00 0.01 0.01 46 1009.1
20260509192916 75 264 6.1 7.8 0.00 0.01 0.01 45 1009.3
20260509192412 75 244 4.3 13.0 0.00 0.01 0.01 46 1009.1
20260509191907 74 289 4.3 13.0 0.00 0.01 0.01 48 1008.9
20260509191403 75 281 11.3 13.0 0.00 0.01 0.01 47 1009.1
20260509190859 76 262 4.3 9.6 0.00 0.01 0.01 48 1009.1